Tracking 28794 objects as of 19-Apr-2024
HD Live streaming from Space Station
objects crossing your sky now

FENGYUN 1C DEB

Track FENGYUN 1C DEB now!
10-day predictions


NORAD ID: 32230
Int'l Code: 1999-025CWC
Perigee: 730.7 km
Apogee: 841.1 km
Inclination: 98.9 °
Period: 100.4 minutes
Semi major axis: 7156 km
RCS: 0.0054 m2 (small)
Launch date: May 10, 1999
Source: People's Republic of China (PRC)
Launch site: Taiyaun Space Center, China (TSC)

Note: This is SATELLITE DEBRIS
Your satellite tracking list
Your tracking list is empty




NASA's NSSDC Master Catalog

Two Line Element Set (TLE):
1 32230U 99025CWC 24108.26227469  .00026622  00000-0  92252-2 0  9998
2 32230  98.8536 225.4380 0077089  98.0121 293.1041 14.33882898519387
Source of the keplerian elements: AFSPC